Regional Weather Roundup
Issued by NWS

Home | Current Version | Previous Version | Text Only | Print | Product List | Glossary On
Versions: 1 2 3 4 5 6 7 8 9 10 11 12 13 14 15 16 17 18 19 20 21 22 23 24 25 26 27 28 29 30 31 32 33 34 35 36 37 38 39 40 41 42 43 44 45 46 47 48 49 50
000
ASUS43 KMKX 250410
RWRWI

WISCONSIN REGIONAL WEATHER ROUNDUP
NATIONAL WEATHER SERVICE MILWAUKEE/SULLIVAN WI
1100 PM CDT SUN MAY 24 2015

NOTE: "FAIR" INDICATES FEW OR NO CLOUDS BELOW 12,000 FEET WITH NO
SIGNIFICANT WEATHER AND/OR OBSTRUCTIONS TO VISIBILITY.

WIZ001-002-006>008-014>016-023>028-250500-
NORTHWEST WISCONSIN

CITY           SKY/WX    TMP DP  RH WIND       PRES   REMARKS
SUPERIOR ARPT  DRIZZLE   58  56  94 E5        29.91F
ASHLAND        LGT RAIN  58  58 100 CALM      29.92F FOG
HAYWARD        LGT RAIN  58  56  93 E6        29.90F
SIREN          DRIZZLE   58  57  97 E7        29.88F
CUMBERLAND     HVY RAIN  55  54  94 E13       29.87F
RICE LAKE      RAIN      57  55  92 E9        29.89F
CHETEK         DRIZZLE   57  57  98 E9        29.87F
LADYSMITH      LGT RAIN  57  56  97 E8        29.92F
EAU CLAIRE     CLOUDY    57  55  93 E8        29.84F
MENOMONIE      CLOUDY    58  57  97 E10       29.85F
NEW RICHMOND   DRIZZLE   57  57 100 E10       29.84F
OSCEOLA        DRIZZLE   58  58 100 E7        29.86F
$$

WIZ003>005-009-010-017-018-250500-
NORTH CENTRAL WISCONSIN

CITY           SKY/WX    TMP DP  RH WIND       PRES   REMARKS
MANITOWISH WTR RAIN      56  56 100 E6        29.95F
ARBOR VITAE    DRIZZLE   57  55  95 E6        29.95F
WOODRUFF       DRIZZLE   57  55  95 E6        29.95F
RHINELANDER    LGT RAIN  55  54  96 E10       29.95F FOG
EAGLE RIVER    LGT RAIN  56  55  99 CALM      29.97F
LAND O LAKES   LGT RAIN  56  56  97 SE3       29.99F
PHILLIPS       RAIN      56  55  99 E5        29.92F
TOMAHAWK       RAIN      55  54  95 E3        29.95F
MEDFORD        HVY RAIN  55  54  98 E7        29.91F
MERRILL        RAIN      56  56 100 E8        29.94F
$$

WIZ029-030-035-036-043>047-250500-
CENTRAL WISCONSIN

CITY           SKY/WX    TMP DP  RH WIND       PRES   REMARKS
WAUSAU         LGT RAIN  55  54  96 E10       29.91F
MOSINEE        DRIZZLE   54  54 100 E10       29.93F
MARSHFIELD     LGT RAIN  56  53  90 E9        29.89F FOG
STEVENS POINT  DRIZZLE   53  52  97 E12       29.92F
WAUPACA        DRIZZLE   57  56  98 E6        29.93F
WAUTOMA        LGT RAIN  57  57 100 VRB5      29.92F FOG
WISC RAPIDS    LGT RAIN  57  53  86 E9        29.90F
CAMP DOUGLAS   NOT AVBL
$$

WIZ011>013-019>022-031-037>040-048>050-250500-
NORTHEAST WISCONSIN

CITY           SKY/WX    TMP DP  RH WIND       PRES   REMARKS
ANTIGO         RAIN      55  55  99 E10       29.96F
SHAWANO        DRIZZLE   57  55  94 E6        29.96F
OCONTO         CLOUDY    54  54 100 E5        29.97F
STURGEON BAY   CLOUDY    57  54  88 E6        30.00F
GREEN BAY      CLOUDY    57  55  93 NE8       29.95F FOG
MANITOWOC      NOT AVBL
APPLETON       LGT RAIN  55  55 100 E8        29.96F FOG
CLINTONVILLE   DRIZZLE   54  54 100 E6        29.94F
OSHKOSH        CLOUDY    58  55  90 E9        29.91F
$$

WIZ032>034-041-042-053>061-250500-
SOUTHWEST WISCONSIN

CITY           SKY/WX    TMP DP  RH WIND       PRES   REMARKS
LA CROSSE      CLOUDY    61  57  87 SE8       29.81F
SPARTA         LGT RAIN  57  55  94 E7        29.85F
VIROQUA        CLOUDY    57  57 100 E12       29.84F
BOSCOBEL       CLOUDY    60  58  92 NE5       29.84S FOG
PRAIRIE DU CHI CLOUDY    62  59  91 E10       29.81S FOG
PLATTEVILLE    CLOUDY    62  61  97 E12       29.85S
$$

WIZ056-057-062-063-064-067-068-250500-
SOUTH CENTRAL WISCONSIN

CITY           SKY/WX    TMP DP  RH WIND       PRES   REMARKS
REEDSBURG      DRIZZLE   56  56  99 E3        29.87F
BARABOO/DELLS  LGT RAIN  56  54  94 E6        29.88F
LONE ROCK      NOT AVBL
MINERAL POINT  CLOUDY    61  59  94 E9        29.85F FOG
MADISON        CLOUDY    59  57  93 SE3       29.89S FOG
MIDDLETON      CLOUDY    59  58  97 E5        29.89F
WATERTOWN      CLOUDY    57  57 100 E8        29.91S
MONROE         CLOUDY    59  59 100 E7        29.89F FOG
JANESVILLE     RAIN      63  61  94 SE7       29.90R
$$

WIZ051-052-058>065-066-070>072-250500-
SOUTHEAST WISCONSIN

CITY           SKY/WX    TMP DP  RH WIND       PRES   REMARKS
MILWAUKEE      LGT RAIN  57  53  86 W6        29.94R
WAUKESHA       RAIN      54  54 100 CALM      29.95R
MILWAUKEE/TIMM RAIN      54  52  94 W5        29.95R
RACINE         RAIN      59  54  83 W15       29.97R
BURLINGTON     LGT RAIN  57  56  97 S3        29.93S
KENOSHA        LGT RAIN  60  58  92 SW8       29.94R FOG
FOND DU LAC    LGT RAIN  58  55  90 SE7       29.92F
SHEBOYGAN      RAIN      54  53  97 NE3       29.96S FOG
WEST BEND      HVY RAIN  54  52  94 CALM      29.96R
JUNEAU         LGT RAIN  56  56  97 E12       29.92F
$$

LSZ147-162-250500-
LAKE SUPERIOR

STATION/POSITION TIME  TEMP    WIND        PRES    WAVE
                       AIR SEA DIR/SP/G            HT/PER
                 (UTC) (F)     (DEG/KT/KT) (MB)    (FT/S)
W MID LAKE BUOY  0250   49 37  180/  8/  8   N/A     0
DEVILS ISLAND    0300   57      80/  2/  3   N/A
PORT WING        0300           40/  6/  6   N/A
SAXON HARBOR     0340   60      CALM  /  5   N/A
$$

LMZ867-665-643>646-250500-
LAKE MICHIGAN

STATION/POSITION TIME  TEMP    WIND        PRES    WAVE
                       AIR SEA DIR/SP/G            HT/PER
                 (UTC) (F)     (DEG/KT/KT) (MB)    (FT/S)
CHAMBERS ISLAND  0300   54      40/  1/  1   N/A
N MID LAKE BUOY  0250   42 36  110/  6/  8   N/A     1/ 3
NORTHPORT PIER   0300   51     170/  2/  6   N/A
SISTER BAY       0317   53        CALM       N/A
KEWAUNEE LAKESHO 0300   52      50/  1/  5   N/A
SHEBOYGAN LAKESH 0300   52     360/  4/  5   N/A
PORT WASHINGTON  0320   54      60/  1/ 14   N/A
ATWATER BUOY     0300   52 46  190/  4/  8   N/A
MILWAUKEE LAKESH 0300   54     140/  3/  5   N/A
S MID LAKE BUOY  0250   48 38   90/ 12/ 12   N/A     1
KENOSHA   LAKESH 0200   55     150/  7/ 10   N/A
$$

TC  - TEMPERATURE IN CELSIUS
VSB - VISIBILITY IN STATUTE MILES
WCI - WIND CHILL INDEX
HX  - HEAT INDEX



USA.gov is the U.S. government's official web portal to all federal, state and local government web resources and services.